Weather in Khaukkavaara

Russia / Republic of Karelia     61°15′08″N   29°41′14″E
temp.,
°C
wind,
m/s
gust,
m/s
humid.,
%
clouds,
%
prec.,
mm/h
press.,
hPa
HPBL,
m
2 march, tue
tue200:00+1wnw5148519 0.0 1009666
03:00−1w4128410 0.0 1009457
06:00−2w411870 0.0 1008401
09:00−2nw413861 0.0 1009557
12:00+1nw612810 0.0 1011764
15:00+2nw511777 0.0 10141143
18:000nw4127931 0.0 1015703
21:00−1wnw3128816 0.0 1017443
3 march, wed
wed300:00−2wnw412860 0.0 1016470
03:00−2w411870 0.0 1016462
06:00−2wnw412890 0.0 1014450
09:00−2w4119110 0.0 1014424
12:000w5108631 0.0 1011551
15:00+1w5118459 0.0 1009683
18:000wsw41198100 0.3 1004594
21:00+1w51297100 2.5 1001713
4 march, thu
thu400:00−1nw5138199 0.9 999747
03:00−4nw5138154 0.9 1000735
06:00−5nw4118624 0.0 1000484
09:00−5nw4108930 0.0 1002504
12:00−4nnw498293 0.0 1002662
15:00−4nw587696 0.0 10041009
18:00−5nw4981100 0.1 1004852
21:00−6nnw498697 0.1 1005679
5 march, fri
fri500:00−7nw398892 0.0 1006516
03:00−8nw389085 0.0 1007398
06:00−9nw389297 0.0 1007414
09:00−9nw279189 0.0 1008481
12:00−6nnw3681100 0.1 1010770
15:00−7nnw5778100 0.1 1012831
18:00−8nnw387587 0.0 1013710
21:00−10nw248643 0.0 1015103
6 march, sat
sat600:00−10wnw25930 0.0 1016145
03:00−10wnw25960 0.0 1016149
06:00−10w25965 0.0 1015141
09:00−10wsw36922 0.0 1013246
12:00−6wsw477942 0.0 1011504
15:00−4sw477037 0.0 1007843
18:00−6ssw41078100 0.0 1003725
21:00−6s41179100 0.0 998620